Hourly Data Report for July 10, 2012

HALIFAX STANFIELD INT'L A
NOVA SCOTIA

44°52'48.060" N
63°30'00.050" W
145.40 m
8202250
71395
YHZ

Download Data

Hourly Data (July 2012)
Hourly Data Report for July 10, 2012
TIME
LST
Temp Definition
°C
Dew Point Definition
°C
Rel Hum Definition
%
Precip. Amount Definition
mm

Wind Dir Definition
10's deg

Wind Spd Definition
km/h
Visibility Definition
km
Stn Press Definition
kPa
Hmdx Definition


Wind Chill Definition


Weather Definition


00:00 16.3 9.1 62   24 15 24.1 99.48     Mainly Clear
01:00 15.8 9.3 65   25 17 24.1 99.50     Mainly Clear
02:00 14.4 9.6 73   24 13 24.1 99.52     Clear
03:00 14.5 9.4 71   23 15 24.1 99.51     Clear
04:00 14.4 9.5 72   24 13 24.1 99.53     Clear
05:00 15.2 9.0 66   25 15 24.1 99.56     Mainly Clear
06:00 16.8 9.2 61   26 15 24.1 99.61     Mainly Clear
07:00 18.9 9.4 54   27 15 24.1 99.65     Mainly Clear
08:00 21.1 10.4 50   25 15 24.1 99.67     Mainly Clear
09:00 22.8 9.6 43   24 20 24.1 99.69     Mainly Clear
10:00 23.4 8.3 38   24 19 24.1 99.70     Mainly Clear
11:00 23.8 8.2 37   28 19 24.1 99.69     Mainly Clear
12:00 25.1 9.6 38   27 22 24.1 99.68 26   Mainly Clear
13:00 25.8 9.6 36   30 22 24.1 99.65 27   Mainly Clear
14:00 25.2 7.4 32   29 24 24.1 99.62 25   Mainly Clear
15:00 25.6 7.5 32   30 17 24.1 99.61 26   Mainly Clear
16:00 25.7 7.7 32   27 20 24.1 99.61 26   Clear
17:00 25.7 7.1 31   30 19 24.1 99.60 26   Clear
18:00 24.9 7.2 32   29 19 24.1 99.62 25   Clear
19:00 23.6 7.8 36   29 17 24.1 99.68     Clear
20:00 21.8 8.5 42   27 7 24.1 99.74     Clear
21:00 19.0 10.8 59   23 9 24.1 99.84     Clear
22:00 18.5 10.8 61   26 13 24.1 99.90     Clear
23:00 18.0 9.0 56   27 13 24.1 99.93     Clear

Notes on Data Quality.

Legend

  • E = Estimated
  • M = Missing
  • NA = Not Available*
  • [empty] = Indicates an unobserved value
Date modified: